[[{"header":{"parameterUnit":"m.s-1","parameterCategory":1,"la1":30.2991,"la2":30.254,"lo1":-89.0895,"lo2":-89.0444,"dy":0.0017,"dx":0.0017,"nx":28,"ny":28,"refTime":"2024-09-26T03:00:00:Z","depth":0,"parameterNumber":2,"parameterNumberName":"U-component_of_WINDS"},"data":[0,0,0,0,0,0,0,0,0,0,0,0,0,0,0,0,0,0,0,0,0,0,0,0,0,0,0,0,0,0,0,0,0,0,0,0,0,0,0,0,0,0,0,0,0,0,0,0,0,0,0,0,0,0,0,0,0,0,1.4148,1.4147,0,1.4103,1.4103,1.4102,1.4072,1.4071,1.4071,1.4071,1.4024,1.4023,1.4022,0,0,0,0,0,0,0,0,0,0,0,0,0,1.4206,1.4205,1.4148,1.4147,1.4147,1.4103,1.4103,1.4102,1.4072,1.4071,1.4071,1.4071,1.4024,1.4023,1.4022,0,0,0,0,0,0,0,0,0,0,0,0,0,1.4173,1.4205,1.4148,1.4126,1.4124,1.4103,1.4103,1.4102,1.4072,1.4071,1.4071,1.4071,1.4024,1.4023,1.4021,1.4018,0,0,1.4017,1.4016,0,0,0,0,0,0,0,0,1.4175,1.4171,1.413,1.4128,1.4125,1.4093,1.4106,1.4074,1.4072,1.4091,1.4071,1.4071,1.4047,1.4043,1.4036,1.4016,1.4014,1.4016,1.4015,1.4015,1.4014,0,0,0,0,0,0,0,1.4177,1.4172,1.413,1.4129,1.4126,1.4119,1.4114,1.41,1.4071,1.409,1.4087,1.4083,1.4045,1.4037,1.4034,1.4013,1.4016,1.4015,1.4014,1.4013,1.399,1.399,0,0,0,0,0,0,1.4183,1.4175,1.4131,1.4129,1.415,1.4118,1.4112,1.4103,1.4072,1.4066,1.4083,1.4081,1.404,1.4036,1.4033,1.4027,1.4015,1.4013,1.4012,1.399,1.399,1.399,0,0,0,0,0,0,1.4184,1.4179,1.4133,1.4151,1.4145,1.4117,1.4108,1.4103,1.4094,1.4066,1.4061,1.408,1.404,1.4035,1.4022,1.4025,1.4013,1.4011,1.3989,1.399,1.399,1.4016,0,0,0,0,0,0,1.4186,1.418,1.4179,1.4151,1.4144,1.4124,1.4108,1.4102,1.4092,1.409,1.4062,1.4057,1.4039,1.4025,1.4021,1.4023,1.401,1.3989,1.399,1.399,1.4015,1.4017,1.402,0,0,0,0,0,1.4188,1.4187,1.4179,1.4174,1.4141,1.4124,1.412,1.4099,1.4092,1.4091,1.4073,1.4058,1.4026,1.4024,1.4019,1.402,1.3989,1.3989,1.399,1.4014,1.4017,1.4019,0,0,0,0,0,0,1.4214,1.4183,1.4173,1.4163,1.4147,1.4119,1.4116,1.4103,1.4088,1.4086,1.4061,1.4055,1.4045,1.4032,1.403,1.4016,1.4005,1.4005,1.4025,1.4028,1.403,1.4033,1.4009,0,0,0,0,0,1.4219,1.4208,1.4181,1.4175,1.4167,1.4143,1.4135,1.4121,1.4103,1.4095,1.4076,1.4059,1.4045,1.4036,1.4021,1.4013,1.4007,1.4012,1.4014,1.4017,1.4016,1.4012,1.4013,1.3993,1.3993,1.3993,0,0,1.4228,1.421,1.4204,1.418,1.4165,1.4154,1.4137,1.4126,1.4118,1.4093,1.408,1.4066,1.4045,1.4035,1.403,1.4024,1.4021,1.4017,1.4019,1.4018,1.4012,1.4014,1.4016,1.3993,1.3993,1.3993,0,0,1.4239,1.4225,1.4218,1.4204,1.4183,1.4167,1.4166,1.4141,1.4131,1.4118,1.4099,1.4089,1.4065,1.4051,1.4041,1.4049,1.4035,1.4045,1.4056,1.4052,1.4054,1.4055,1.4058,1.4059,1.4045,1.4045,1.4045,0,1.4253,1.4236,1.4216,1.4206,1.4196,1.4175,1.4168,1.4155,1.413,1.4124,1.4118,1.4088,1.4072,1.4059,1.4061,1.4054,1.4051,1.4047,1.4055,1.4056,1.4057,1.406,1.4061,1.4046,1.4046,1.4046,1.4046,0,1.4254,1.4243,1.424,1.4217,1.4207,1.4199,1.4177,1.417,1.4157,1.4142,1.413,1.4111,1.4092,1.4088,1.4075,1.4073,1.407,1.406,1.4048,1.4061,1.4063,1.4063,1.4048,1.4048,1.4047,1.4047,0,0,1.4278,1.4246,1.4245,1.4235,1.4211,1.4202,1.4193,1.4176,1.4169,1.4154,1.4145,1.4127,1.4118,1.4106,1.4092,1.4088,1.4096,1.4079,1.4078,1.4082,1.4093,1.41,1.4101,1.4087,1.4087,1.4088,1.4094,0,1.4285,1.4268,1.4251,1.424,1.4229,1.421,1.4203,1.4187,1.4174,1.4163,1.4147,1.4135,1.4124,1.4117,1.4113,1.4096,1.4098,1.4095,1.4079,1.4079,1.4084,1.4102,1.4109,1.4116,1.4095,1.4095,1.4095,0,1.429,1.4276,1.4265,1.4243,1.4238,1.4231,1.4214,1.4204,1.4187,1.4177,1.4165,1.4151,1.4141,1.4132,1.4118,1.4116,1.4109,1.41,1.41,1.4096,1.4087,1.4098,1.4118,1.4119,1.4096,1.4096,1.4096,0,1.4309,1.4287,1.4277,1.4269,1.4243,1.4239,1.4228,1.421,1.4202,1.4187,1.4181,1.4166,1.4157,1.4146,1.4127,1.4122,1.4115,1.4105,1.4107,1.4107,1.4104,1.4105,1.4122,1.4102,1.4102,1.4102,1.4102,0,1.4317,1.4311,1.4285,1.4279,1.4272,1.4252,1.4245,1.4232,1.4217,1.4208,1.4191,1.4183,1.416,1.4149,1.4135,1.4126,1.4122,1.4114,1.411,1.4115,1.4116,1.4108,1.4107,1.4102,1.4102,1.4102,1.4102,0,1.4335,1.4318,1.4306,1.4284,1.4278,1.4273,1.4254,1.4247,1.4234,1.4223,1.4219,1.4198,1.4184,1.4166,1.4147,1.4137,1.4129,1.4124,1.4135,1.4133,1.4136,1.4135,1.4148,1.4149,1.4129,1.4129,1.413,0,1.4342,1.4336,1.4314,1.4307,1.4297,1.4286,1.4277,1.4258,1.425,1.423,1.4226,1.4212,1.42,1.418,1.4162,1.4148,1.4141,1.4147,1.4138,1.4144,1.414,1.414,1.414,1.4148,1.4148,1.4149,1.4149,0,1.4354,1.4346,1.4334,1.432,1.431,1.4298,1.4285,1.428,1.4259,1.425,1.4237,1.4227,1.4209,1.4195,1.4179,1.4167,1.4154,1.4152,1.4151,1.4156,1.4162,1.4158,1.414,1.4151,1.4151,1.4151,1.4151,1.4151,1.4366,1.4361,1.4344,1.4332,1.432,1.4309,1.4302,1.4288,1.4277,1.426,1.425,1.4238,1.4221,1.4198,1.4188,1.4178,1.4172,1.4172,1.4171,1.4171,1.4173,1.4165,1.4175,1.4174,1.4174,1.4174,1.4174,0,1.4377,1.4366,1.4355,1.4338,1.4328,1.4318,1.4304,1.4296,1.4286,1.4272,1.426,1.4246,1.4233,1.4215,1.4201,1.4196,1.419,1.4193,1.4192,1.419,1.4179,1.418,1.4198,1.4198,1.4198,1.4198,1.4198,1.4198,1.4381,1.4372,1.4363,1.4348,1.4336,1.4324,1.4317,1.4306,1.4295,1.428,1.4269,1.4258,1.4243,1.4228,1.4215,1.421,1.4206,1.421,1.4204,1.4193,1.4191,1.4189,1.419,1.421,1.421,1.4216,1.4216,1.4216]},{"header":{"parameterUnit":"m.s-1","parameterCategory":1,"la1":30.2991,"la2":30.254,"lo1":-89.0895,"lo2":-89.0444,"dy":0.0017,"dx":0.0017,"nx":28,"ny":28,"refTime":"2024-09-26T03:00:00:Z","depth":0,"parameterNumber":3,"parameterNumberName":"V-component_of_WINDS"},"data":[0,0,0,0,0,0,0,0,0,0,0,0,0,0,0,0,0,0,0,0,0,0,0,0,0,0,0,0,0,0,0,0,0,0,0,0,0,0,0,0,0,0,0,0,0,0,0,0,0,0,0,0,0,0,0,0,0,0,-8.4163,-8.4165,0,-8.434,-8.4342,-8.4344,-8.4256,-8.4251,-8.4247,-8.4242,-8.4418,-8.4427,-8.4436,0,0,0,0,0,0,0,0,0,0,0,0,0,-8.3747,-8.3755,-8.4163,-8.4165,-8.4167,-8.4339,-8.4342,-8.4344,-8.4257,-8.4251,-8.4245,-8.424,-8.4415,-8.4426,-8.4437,0,0,0,0,0,0,0,0,0,0,0,0,0,-8.3926,-8.3758,-8.4162,-8.4145,-8.4145,-8.4339,-8.4342,-8.4345,-8.4258,-8.4251,-8.4244,-8.4238,-8.4412,-8.4425,-8.4438,-8.4659,0,0,-8.4479,-8.4485,0,0,0,0,0,0,0,0,-8.3916,-8.3941,-8.4145,-8.4146,-8.4147,-8.4269,-8.4259,-8.445,-8.4259,-8.4215,-8.4242,-8.4234,-8.4374,-8.439,-8.4438,-8.4667,-8.4674,-8.448,-8.4488,-8.4494,-8.4498,0,0,0,0,0,0,0,-8.3903,-8.3933,-8.4233,-8.4148,-8.4149,-8.4127,-8.4144,-8.4295,-8.433,-8.4218,-8.4212,-8.4234,-8.4373,-8.4425,-8.4441,-8.4677,-8.448,-8.4492,-8.45,-8.4505,-8.5098,-8.5105,0,0,0,0,0,0,-8.3892,-8.3923,-8.4227,-8.4238,-8.4012,-8.414,-8.416,-8.4236,-8.4329,-8.4336,-8.424,-8.423,-8.4406,-8.4426,-8.4447,-8.4714,-8.4494,-8.4507,-8.4514,-8.509,-8.5099,-8.5108,0,0,0,0,0,0,-8.3884,-8.392,-8.422,-8.4079,-8.4116,-8.4154,-8.4241,-8.4243,-8.4296,-8.4345,-8.4351,-8.4288,-8.4401,-8.4428,-8.4608,-8.4718,-8.4513,-8.4525,-8.5081,-8.5093,-8.5104,-8.5247,0,0,0,0,0,0,-8.3872,-8.3918,-8.4003,-8.4082,-8.4124,-8.4379,-8.4248,-8.4252,-8.432,-8.4308,-8.4391,-8.4398,-8.4398,-8.4588,-8.4621,-8.4733,-8.4535,-8.5071,-8.5086,-8.51,-8.5232,-8.5262,-8.5287,0,0,0,0,0,-8.3858,-8.4034,-8.4007,-8.4045,-8.4231,-8.4385,-8.4409,-8.4406,-8.4329,-8.4415,-8.4447,-8.4396,-8.4701,-8.4607,-8.4643,-8.4761,-8.5064,-8.5082,-8.5099,-8.522,-8.5256,-8.5286,0,0,0,0,0,0,-8.3965,-8.4044,-8.4015,-8.4223,-8.4299,-8.437,-8.4478,-8.4444,-8.4541,-8.4526,-8.4516,-8.4536,-8.4723,-8.4759,-8.4654,-8.498,-8.487,-8.4896,-8.495,-8.4985,-8.5011,-8.4999,-8.4547,0,0,0,0,0,-8.4013,-8.4134,-8.4195,-8.4373,-8.4412,-8.4439,-8.4506,-8.4498,-8.4575,-8.4606,-8.465,-8.4726,-8.4839,-8.4913,-8.502,-8.5237,-8.5254,-8.5336,-8.5363,-8.5385,-8.5407,-8.5527,-8.5564,-8.5164,-8.5164,-8.5164,0,0,-8.4113,-8.4171,-8.4248,-8.4396,-8.4453,-8.4578,-8.4466,-8.4602,-8.4694,-8.4625,-8.4799,-8.4835,-8.4918,-8.5118,-8.5208,-8.5154,-8.5522,-8.5407,-8.5424,-8.5435,-8.5548,-8.5586,-8.562,-8.5176,-8.5174,-8.5172,0,0,-8.436,-8.4416,-8.4571,-8.4631,-8.4721,-8.4737,-8.4775,-8.4853,-8.4875,-8.5049,-8.5001,-8.5109,-8.5303,-8.5366,-8.5423,-8.5695,-8.5653,-8.573,-8.5873,-8.5989,-8.6021,-8.6049,-8.6148,-8.6183,-8.5752,-8.5752,-8.5752,0,-8.4473,-8.466,-8.4654,-8.4795,-8.4862,-8.4808,-8.4965,-8.5023,-8.5142,-8.519,-8.5128,-8.5372,-8.5424,-8.5639,-8.5706,-8.5753,-8.5796,-8.5721,-8.6017,-8.6045,-8.6071,-8.6165,-8.6202,-8.5761,-8.576,-8.5759,-8.5758,0,-8.4795,-8.4926,-8.504,-8.5159,-8.5239,-8.5387,-8.5403,-8.5484,-8.5469,-8.5492,-8.5671,-8.5732,-8.5851,-8.5901,-8.5886,-8.6114,-8.6079,-8.6017,-8.5907,-8.6118,-8.6207,-8.6243,-8.5774,-8.5771,-8.5768,-8.5766,0,0,-8.5114,-8.523,-8.5273,-8.5327,-8.5422,-8.5522,-8.5668,-8.5786,-8.5857,-8.594,-8.6063,-8.623,-8.6175,-8.6239,-8.6231,-8.6333,-8.6548,-8.626,-8.6261,-8.6313,-8.6805,-8.6852,-8.6894,-8.652,-8.6527,-8.6532,-8.6799,0,-8.5369,-8.5627,-8.5627,-8.5864,-8.5985,-8.5936,-8.6063,-8.6135,-8.6161,-8.6266,-8.6293,-8.6413,-8.633,-8.6369,-8.6468,-8.6501,-8.6647,-8.6481,-8.6634,-8.6639,-8.6617,-8.694,-8.699,-8.7239,-8.6833,-8.6839,-8.6843,0,-8.5701,-8.5799,-8.6049,-8.6129,-8.618,-8.6294,-8.6404,-8.6506,-8.6586,-8.6598,-8.6672,-8.6648,-8.6796,-8.6681,-8.6885,-8.6772,-8.6834,-8.686,-8.6869,-8.6885,-8.6755,-8.6966,-8.7318,-8.7357,-8.6898,-8.6893,-8.6889,0,-8.5912,-8.6105,-8.6281,-8.6328,-8.6425,-8.6507,-8.6551,-8.6625,-8.6697,-8.6792,-8.6839,-8.6949,-8.701,-8.7096,-8.7103,-8.7017,-8.7309,-8.7193,-8.7323,-8.7323,-8.7388,-8.7384,-8.7757,-8.7425,-8.7424,-8.7424,-8.7423,0,-8.6197,-8.6353,-8.6377,-8.6485,-8.6658,-8.6656,-8.6827,-8.6863,-8.693,-8.7044,-8.7007,-8.7114,-8.7116,-8.7225,-8.7231,-8.7401,-8.7427,-8.7441,-8.7441,-8.7446,-8.7445,-8.7487,-8.7471,-8.7433,-8.7431,-8.7429,-8.7428,0,-8.6462,-8.6485,-8.6673,-8.675,-8.6773,-8.6898,-8.6963,-8.7066,-8.7089,-8.7234,-8.7267,-8.7303,-8.743,-8.7445,-8.7592,-8.7596,-8.7801,-8.7781,-8.7775,-8.7773,-8.7902,-8.7891,-8.8317,-8.8374,-8.8004,-8.8007,-8.801,0,-8.6644,-8.6763,-8.6854,-8.6929,-8.6978,-8.7099,-8.7173,-8.7175,-8.7254,-8.7356,-8.7447,-8.7571,-8.767,-8.7876,-8.7914,-8.8027,-8.8011,-8.8153,-8.8027,-8.8029,-8.8016,-8.8009,-8.8022,-8.8177,-8.8181,-8.8184,-8.8187,0,-8.6965,-8.6971,-8.708,-8.7195,-8.7285,-8.7375,-8.7458,-8.7521,-8.7534,-8.7624,-8.7756,-8.7833,-8.7985,-8.8109,-8.8221,-8.8264,-8.823,-8.8226,-8.8263,-8.827,-8.8262,-8.827,-8.7843,-8.8217,-8.8214,-8.8212,-8.821,-8.8209,-8.7196,-8.73,-8.7382,-8.7505,-8.7569,-8.7649,-8.7751,-8.7787,-8.7897,-8.8023,-8.8017,-8.8162,-8.824,-8.8387,-8.8439,-8.8552,-8.8505,-8.8557,-8.857,-8.8584,-8.8598,-8.8243,-8.8572,-8.8571,-8.857,-8.8569,-8.8569,0,-8.7517,-8.7567,-8.7681,-8.7802,-8.7899,-8.7858,-8.795,-8.8034,-8.8162,-8.8239,-8.8339,-8.849,-8.8611,-8.8659,-8.8777,-8.8858,-8.8845,-8.8889,-8.8884,-8.8895,-8.8632,-8.859,-8.8898,-8.8898,-8.8898,-8.8898,-8.8898,-8.8897,-8.7696,-8.7871,-8.7887,-8.8094,-8.8143,-8.8286,-8.8342,-8.8416,-8.8478,-8.8649,-8.875,-8.8782,-8.8848,-8.897,-8.9079,-8.909,-8.9136,-8.9188,-8.9192,-8.8946,-8.8913,-8.8881,-8.8842,-8.9197,-8.9198,-8.9445,-8.9447,-8.9449]}]]